,,,PA_Meas_PMT16A,,PR_Meas_QMR101_102,,RH_Meas_QMH101,,SR_Meas_QMS101,,TA_Meas_QMH101,,GenWind,,GenWind,
date,time,status,PA,status,PR,status,RH,status,SR,status,TA,status,DirAvg,status,SpdAvg,
2008-09-10, 00:00:05,VALID,1003.85,VALID,0,VALID,94.4913,VALID,0,VALID,23.7814,VALID,42,VALID,0.180078,
2008-09-10, 00:01:05,VALID,1003.85,VALID,0,VALID,94.5142,VALID,0.100563,VALID,23.7814,VALID,42,VALID,0,
2008-09-10, 00:02:05,VALID,1003.83,VALID,0,VALID,94.5295,VALID,0,VALID,23.8009,VALID,42,VALID,0.25625,
2008-09-10, 00:03:05,VALID,1003.85,VALID,0,VALID,94.5905,VALID,0.100563,VALID,23.8203,VALID,42,VALID,0.307813,
2008-09-10, 00:04:05,VALID,1003.82,VALID,0,VALID,94.5752,VALID,0,VALID,23.8398,VALID,42,VALID,0,
2008-09-10, 00:05:05,VALID,1003.81,VALID,0,VALID,94.5829,VALID,0.100563,VALID,23.838,VALID,42,VALID,0.0503906,
2008-09-10, 00:06:05,VALID,1003.79,VALID,0,VALID,94.5829,VALID,0.100563,VALID,23.8787,VALID,42,VALID,0.341797,
2008-09-10, 00:07:05,VALID,1003.81,VALID,0,VALID,94.5142,VALID,0,VALID,23.8982,VALID,42,VALID,0.573828,
2008-09-10, 00:08:05,VALID,1003.79,VALID,0,VALID,94.4227,VALID,0.100563,VALID,23.8982,VALID,42,VALID,0.291406,
2008-09-10, 00:09:05,VALID,1003.76,VALID,0,VALID,94.4227,VALID,0,VALID,23.8982,VALID,42,VALID,0.173047,
2008-09-10, 00:10:05,VALID,1003.75,VALID,0,VALID,94.3616,VALID,0,VALID,23.8787,VALID,42,VALID,0,
2008-09-10, 00:11:05,VALID,1003.74,VALID,0,VALID,94.3921,VALID,0,VALID,23.8787,VALID,42,VALID,0,
2008-09-10, 00:12:05,VALID,1003.74,VALID,0,VALID,94.3006,VALID,0,VALID,23.8593,VALID,42,VALID,0,
2008-09-10, 00:13:05,VALID,1003.72,VALID,0,VALID,94.2701,VALID,0,VALID,23.8398,VALID,42,VALID,0,
2008-09-10, 00:14:05,VALID,1003.75,VALID,0,VALID,94.2777,VALID,0.100563,VALID,23.8185,VALID,42,VALID,0,
2008-09-10, 00:15:05,VALID,1003.72,VALID,0,VALID,94.354,VALID,0,VALID,23.8398,VALID,42,VALID,0,
2008-09-10, 00:16:05,VALID,1003.73,VALID,0,VALID,94.4532,VALID,0,VALID,23.8787,VALID,42,VALID,0,
2008-09-10, 00:17:05,VALID,1003.72,VALID,0,VALID,94.4989,VALID,0,VALID,23.8982,VALID,42,VALID,0,
2008-09-10, 00:18:05,VALID,1003.72,VALID,0,VALID,94.5218,VALID,0,VALID,23.9177,VALID,42,VALID,0,
2008-09-10, 00:19:05,VALID,1003.71,VALID,0,VALID,94.4684,VALID,0,VALID,23.9371,VALID,42,VALID,0,
2008-09-10, 00:20:05,VALID,1003.71,VALID,0,VALID,94.3464,VALID,0,VALID,23.8982,VALID,42,VALID,0,
2008-09-10, 00:21:05,VALID,1003.72,VALID,0,VALID,94.3006,VALID,0,VALID,23.8982,VALID,42,VALID,0,
2008-09-10, 00:22:05,VALID,1003.68,VALID,0,VALID,94.2777,VALID,0,VALID,23.8982,VALID,42,VALID,0,
2008-09-10, 00:23:05,VALID,1003.71,VALID,0,VALID,94.2548,VALID,0,VALID,23.9,VALID,42,VALID,0,
2008-09-10, 00:24:05,VALID,1003.7,VALID,0,VALID,94.2319,VALID,0,VALID,23.8593,VALID,42,VALID,0,
2008-09-10, 00:25:05,VALID,1003.68,VALID,0,VALID,94.3082,VALID,0,VALID,23.9,VALID,42,VALID,0,
2008-09-10, 00:26:05,VALID,1003.67,VALID,0,VALID,94.3769,VALID,0,VALID,23.9195,VALID,42,VALID,0,
2008-09-10, 00:27:05,VALID,1003.66,VALID,0,VALID,94.415,VALID,0,VALID,23.8769,VALID,42,VALID,0,
2008-09-10, 00:28:05,VALID,1003.65,VALID,0,VALID,94.4303,VALID,0,VALID,23.9177,VALID,42,VALID,0,
2008-09-10, 00:29:05,VALID,1003.63,VALID,0,VALID,94.415,VALID,0,VALID,23.8982,VALID,42,VALID,0,
2008-09-10, 00:30:05,VALID,1003.62,VALID,0,VALID,94.4837,VALID,0,VALID,23.9371,VALID,42,VALID,0.202344,
2008-09-10, 00:31:05,VALID,1003.58,VALID,0,VALID,94.4303,VALID,0,VALID,23.9177,VALID,42,VALID,0.104297,
2008-09-10, 00:32:05,VALID,1003.59,VALID,0,VALID,94.4608,VALID,0,VALID,23.9177,VALID,42,VALID,0.135547,
2008-09-10, 00:33:05,VALID,1003.57,VALID,0,VALID,94.4379,VALID,0,VALID,23.9177,VALID,42,VALID,0,
2008-09-10, 00:34:05,VALID,1003.55,VALID,0,VALID,94.4608,VALID,0,VALID,23.9177,VALID,42,VALID,0,
2008-09-10, 00:35:05,VALID,1003.56,VALID,0,VALID,94.4379,VALID,0,VALID,23.8982,VALID,42,VALID,0,
2008-09-10, 00:36:05,VALID,1003.56,VALID,0,VALID,94.4379,VALID,0,VALID,23.9195,VALID,42,VALID,0.496094,
2008-09-10, 00:37:05,VALID,1003.57,VALID,0,VALID,94.4761,VALID,0,VALID,23.8982,VALID,42,VALID,0.0222656,
2008-09-10, 00:38:05,VALID,1003.56,VALID,0,VALID,94.4989,VALID,0,VALID,23.8982,VALID,42,VALID,0.495313,
2008-09-10, 00:39:05,VALID,1003.57,VALID,0,VALID,94.4684,VALID,0,VALID,23.8787,VALID,42,VALID,0.353125,
2008-09-10, 00:40:05,VALID,1003.56,VALID,0,VALID,94.4532,VALID,0,VALID,23.8787,VALID,42,VALID,0.263672,
2008-09-10, 00:41:05,VALID,1003.57,VALID,0,VALID,94.415,VALID,0,VALID,23.8398,VALID,42,VALID,0.285937,
2008-09-10, 00:42:05,VALID,1003.57,VALID,0,VALID,94.4684,VALID,0,VALID,23.8593,VALID,42,VALID,0.333594,
2008-09-10, 00:43:05,VALID,1003.61,VALID,0,VALID,94.354,VALID,0,VALID,23.8398,VALID,42,VALID,0,
2008-09-10, 00:44:05,VALID,1003.56,VALID,0,VALID,94.3311,VALID,0,VALID,23.8009,VALID,42,VALID,0,
2008-09-10, 00:45:05,VALID,1003.54,VALID,0,VALID,94.3387,VALID,0,VALID,23.7814,VALID,42,VALID,0,
2008-09-10, 00:46:05,VALID,1003.57,VALID,0,VALID,94.4227,VALID,0,VALID,23.8009,VALID,42,VALID,0,
2008-09-10, 00:47:05,VALID,1003.55,VALID,0,VALID,94.5981,VALID,0,VALID,23.8009,VALID,42,VALID,0,
2008-09-10, 00:48:05,VALID,1003.49,VALID,0,VALID,94.5295,VALID,0,VALID,23.8203,VALID,42,VALID,0,
2008-09-10, 00:49:05,VALID,1003.48,VALID,0,VALID,94.5829,VALID,0,VALID,23.8203,VALID,42,VALID,0,
2008-09-10, 00:50:05,VALID,1003.47,VALID,0,VALID,94.5981,VALID,0,VALID,23.8203,VALID,42,VALID,0,
2008-09-10, 00:51:05,VALID,1003.46,VALID,0,VALID,94.7354,VALID,0,VALID,23.8787,VALID,55,VALID,0.224609,
2008-09-10, 00:52:05,VALID,1003.47,VALID,0,VALID,94.5829,VALID,0,VALID,23.8593,VALID,55,VALID,0.101563,
2008-09-10, 00:53:05,VALID,1003.5,VALID,0,VALID,94.4379,VALID,0,VALID,23.8593,VALID,55,VALID,0.0398437,
2008-09-10, 00:54:05,VALID,1003.46,VALID,0,VALID,94.4227,VALID,0,VALID,23.8398,VALID,55,VALID,0,
2008-09-10, 00:55:05,VALID,1003.45,VALID,0,VALID,94.5066,VALID,0,VALID,23.8398,VALID,55,VALID,0,
2008-09-10, 00:56:05,VALID,1003.45,VALID,0,VALID,94.4913,VALID,0,VALID,23.8398,VALID,55,VALID,0,
2008-09-10, 00:57:05,VALID,1003.41,VALID,0,VALID,94.4684,VALID,0,VALID,23.8398,VALID,55,VALID,0.06875,
2008-09-10, 00:58:05,VALID,1003.44,VALID,0,VALID,94.4608,VALID,0,VALID,23.8203,VALID,55,VALID,0,
2008-09-10, 00:59:05,VALID,1003.43,VALID,0,VALID,94.4303,VALID,0,VALID,23.8203,VALID,55,VALID,0.380859,
2008-09-10, 01:00:05,VALID,1003.38,VALID,0,VALID,94.4761,VALID,0,VALID,23.8009,VALID,51,VALID,0.50625,
2008-09-10, 01:01:05,VALID,1003.37,VALID,0,VALID,94.3921,VALID,0,VALID,23.7814,VALID,49,VALID,0.423828,
2008-09-10, 01:02:05,VALID,1003.37,VALID,0,VALID,94.2243,VALID,0,VALID,23.723,VALID,49,VALID,0.330469,
2008-09-10, 01:03:05,VALID,1003.37,VALID,0,VALID,94.3311,VALID,0,VALID,23.7035,VALID,49,VALID,0.333594,
2008-09-10, 01:04:05,VALID,1003.41,VALID,0,VALID,94.3921,VALID,0,VALID,23.7035,VALID,49,VALID,0.332031,
2008-09-10, 01:05:05,VALID,1003.39,VALID,0,VALID,94.3769,VALID,0,VALID,23.6841,VALID,49,VALID,0.413281,
2008-09-10, 01:06:05,VALID,1003.41,VALID,0,VALID,94.3464,VALID,0,VALID,23.6452,VALID,49,VALID,0.302734,
2008-09-10, 01:07:05,VALID,1003.41,VALID,0,VALID,94.4532,VALID,0,VALID,23.6469,VALID,48,VALID,0.359375,
2008-09-10, 01:08:05,VALID,1003.39,VALID,0,VALID,94.4227,VALID,0,VALID,23.6062,VALID,48,VALID,0.361719,
2008-09-10, 01:09:05,VALID,1003.42,VALID,0,VALID,94.4684,VALID,0,VALID,23.6275,VALID,48,VALID,0.389062,
2008-09-10, 01:10:05,VALID,1003.41,VALID,0,VALID,94.682,VALID,0,VALID,23.6275,VALID,47,VALID,0.511719,
2008-09-10, 01:11:05,VALID,1003.4,VALID,0,VALID,94.7049,VALID,0,VALID,23.6275,VALID,47,VALID,0.406641,
2008-09-10, 01:12:05,VALID,1003.37,VALID,0,VALID,94.621,VALID,0,VALID,23.6257,VALID,47,VALID,0.326953,
2008-09-10, 01:13:05,VALID,1003.42,VALID,0,VALID,94.6439,VALID,0,VALID,23.6062,VALID,47,VALID,0.153125,
2008-09-10, 01:14:05,VALID,1003.41,VALID,0,VALID,94.6286,VALID,0,VALID,23.6275,VALID,47,VALID,0.392188,
2008-09-10, 01:15:05,VALID,1003.44,VALID,0,VALID,94.6515,VALID,0,VALID,23.5673,VALID,47,VALID,0.343359,
2008-09-10, 01:16:05,VALID,1003.46,VALID,0,VALID,94.8194,VALID,0,VALID,23.6257,VALID,47,VALID,0.472656,
2008-09-10, 01:17:05,VALID,1003.41,VALID,0,VALID,94.9109,VALID,0,VALID,23.6452,VALID,47,VALID,0.566797,
2008-09-10, 01:18:05,VALID,1003.45,VALID,0,VALID,94.9567,VALID,0,VALID,23.6841,VALID,47,VALID,0.670313,
2008-09-10, 01:19:05,VALID,1003.4,VALID,0,VALID,94.9567,VALID,0,VALID,23.7035,VALID,47,VALID,0.484375,
2008-09-10, 01:20:05,VALID,1003.41,VALID,0,VALID,94.9567,VALID,0,VALID,23.7248,VALID,47,VALID,0.551953,
2008-09-10, 01:21:05,VALID,1003.4,VALID,0,VALID,94.8575,VALID,0,VALID,23.7248,VALID,47,VALID,0.367969,
2008-09-10, 01:22:05,VALID,1003.39,VALID,0,VALID,94.6591,VALID,0,VALID,23.6452,VALID,47,VALID,0.566797,
2008-09-10, 01:23:05,VALID,1003.37,VALID,0,VALID,94.766,VALID,0,VALID,23.6257,VALID,45,VALID,0.515625,
2008-09-10, 01:24:05,VALID,1003.38,VALID,0,VALID,94.766,VALID,0,VALID,23.6257,VALID,45,VALID,0.500391,
2008-09-10, 01:25:05,VALID,1003.38,VALID,0,VALID,94.682,VALID,0,VALID,23.5868,VALID,45,VALID,0.255078,
2008-09-10, 01:26:05,VALID,1003.34,VALID,0,VALID,94.7431,VALID,0,VALID,23.5885,VALID,45,VALID,0.307422,
2008-09-10, 01:27:05,VALID,1003.34,VALID,0,VALID,94.9033,VALID,0,VALID,23.5868,VALID,45,VALID,0.402344,
2008-09-10, 01:28:05,VALID,1003.35,VALID,0,VALID,94.9109,VALID,0,VALID,23.6062,VALID,45,VALID,0.0265625,
2008-09-10, 01:29:05,VALID,1003.3,VALID,0,VALID,94.9185,VALID,0,VALID,23.6275,VALID,45,VALID,0.11875,
2008-09-10, 01:30:05,VALID,1003.3,VALID,0,VALID,94.9719,VALID,0,VALID,23.6664,VALID,45,VALID,0.197266,
2008-09-10, 01:31:05,VALID,1003.28,VALID,0,VALID,95.0406,VALID,0,VALID,23.6859,VALID,45,VALID,0.0347656,
2008-09-10, 01:32:05,VALID,1003.28,VALID,0,VALID,94.9796,VALID,0,VALID,23.6452,VALID,45,VALID,0.280859,
2008-09-10, 01:33:05,VALID,1003.26,VALID,0,VALID,95.0024,VALID,0,VALID,23.6859,VALID,45,VALID,0.507031,
2008-09-10, 01:34:05,VALID,1003.25,VALID,0,VALID,94.9643,VALID,0,VALID,23.6452,VALID,45,VALID,0.366016,
2008-09-10, 01:35:05,VALID,1003.23,VALID,0,VALID,94.9643,VALID,0,VALID,23.6452,VALID,45,VALID,0.680859,
2008-09-10, 01:36:05,VALID,1003.23,VALID,0,VALID,94.9338,VALID,0,VALID,23.6452,VALID,45,VALID,0.489453,
2008-09-10, 01:37:05,VALID,1003.24,VALID,0,VALID,94.8651,VALID,0,VALID,23.6062,VALID,45,VALID,0.641016,
2008-09-10, 01:38:05,VALID,1003.24,VALID,0,VALID,94.8194,VALID,0,VALID,23.5868,VALID,45,VALID,0.645703,
2008-09-10, 01:39:05,VALID,1003.21,VALID,0,VALID,94.8117,VALID,0,VALID,23.5673,VALID,45,VALID,0.633984,
2008-09-10, 01:40:05,VALID,1003.21,VALID,0,VALID,94.7507,VALID,0,VALID,23.5284,VALID,45,VALID,0.514453,
2008-09-10, 01:41:05,VALID,1003.18,VALID,0,VALID,94.7202,VALID,0,VALID,23.4912,VALID,45,VALID,0.461719,
2008-09-10, 01:42:05,VALID,1003.2,VALID,0,VALID,94.7278,VALID,0,VALID,23.4505,VALID,45,VALID,0.451172,
2008-09-10, 01:43:05,VALID,1003.18,VALID,0,VALID,94.8041,VALID,0,VALID,23.4523,VALID,45,VALID,0.386328,
2008-09-10, 01:44:05,VALID,1003.19,VALID,0,VALID,94.8346,VALID,0,VALID,23.4328,VALID,45,VALID,0.351563,
2008-09-10, 01:45:05,VALID,1003.17,VALID,0,VALID,94.8651,VALID,0,VALID,23.4134,VALID,45,VALID,0.291406,
2008-09-10, 01:46:05,VALID,1003.14,VALID,0,VALID,94.9033,VALID,0,VALID,23.3921,VALID,45,VALID,0,
2008-09-10, 01:47:05,VALID,1003.19,VALID,0,VALID,94.9109,VALID,0,VALID,23.3921,VALID,45,VALID,0.0554687,
2008-09-10, 01:48:05,VALID,1003.16,VALID,0,VALID,95.0024,VALID,0,VALID,23.4134,VALID,45,VALID,0.277734,
2008-09-10, 01:49:05,VALID,1003.18,VALID,0,VALID,95.094,VALID,0,VALID,23.4328,VALID,45,VALID,0.382813,
2008-09-10, 01:50:05,VALID,1003.19,VALID,0,VALID,95.2237,VALID,0,VALID,23.4912,VALID,45,VALID,0.338281,
2008-09-10, 01:51:05,VALID,1003.18,VALID,0,VALID,95.2084,VALID,0,VALID,23.5107,VALID,45,VALID,0.451172,
2008-09-10, 01:52:05,VALID,1003.17,VALID,0,VALID,95.2008,VALID,0,VALID,23.5284,VALID,45,VALID,0.208984,
2008-09-10, 01:53:05,VALID,1003.18,VALID,0,VALID,95.2313,VALID,0,VALID,23.5691,VALID,45,VALID,0.285547,
2008-09-10, 01:54:05,VALID,1003.17,VALID,0,VALID,95.2389,VALID,0,VALID,23.5478,VALID,45,VALID,0.226953,
2008-09-10, 01:55:05,VALID,1003.13,VALID,0,VALID,95.2771,VALID,0,VALID,23.608,VALID,46,VALID,0.389062,
2008-09-10, 01:56:05,VALID,1003.15,VALID,0,VALID,95.2923,VALID,0,VALID,23.5868,VALID,45,VALID,0.168359,
2008-09-10, 01:57:05,VALID,1003.17,VALID,0,VALID,95.2923,VALID,0,VALID,23.6062,VALID,45,VALID,0.418359,
2008-09-10, 01:58:05,VALID,1003.16,VALID,0,VALID,95.2084,VALID,0,VALID,23.6257,VALID,45,VALID,0.311719,
2008-09-10, 01:59:05,VALID,1003.13,VALID,0,VALID,95.1932,VALID,0,VALID,23.6062,VALID,45,VALID,0.469531,
2008-09-10, 02:00:04,VALID,1003.15,VALID,0,VALID,95.1093,VALID,0,VALID,23.5868,VALID,45,VALID,0.376563,
2008-09-10, 02:01:04,VALID,1003.14,VALID,0,VALID,95.0482,VALID,0,VALID,23.5673,VALID,45,VALID,0.176953,
2008-09-10, 02:02:04,VALID,1003.13,VALID,0,VALID,95.1779,VALID,0,VALID,23.5868,VALID,45,VALID,0.137109,
2008-09-10, 02:03:04,VALID,1003.16,VALID,0,VALID,95.1474,VALID,0,VALID,23.5868,VALID,45,VALID,0.00625,
2008-09-10, 02:04:04,VALID,1003.14,VALID,0,VALID,95.1932,VALID,0,VALID,23.6257,VALID,45,VALID,0.344531,
2008-09-10, 02:05:04,VALID,1003.14,VALID,0,VALID,95.2389,VALID,0,VALID,23.6452,VALID,45,VALID,0.222266,
2008-09-10, 02:06:04,VALID,1003.14,VALID,0,VALID,95.2313,VALID,0,VALID,23.6646,VALID,45,VALID,0.00585938,
2008-09-10, 02:07:04,VALID,1003.11,VALID,0,VALID,95.2466,VALID,0,VALID,23.6452,VALID,45,VALID,0,
2008-09-10, 02:08:04,VALID,1003.1,VALID,0,VALID,95.3152,VALID,0,VALID,23.7443,VALID,45,VALID,0.229297,
2008-09-10, 02:09:04,VALID,1003.09,VALID,0,VALID,95.3076,VALID,0,VALID,23.7637,VALID,45,VALID,0.175781,
2008-09-10, 02:10:04,VALID,1003.1,VALID,0,VALID,95.3686,VALID,0,VALID,23.7814,VALID,45,VALID,0.391797,
2008-09-10, 02:11:04,VALID,1003.09,VALID,0,VALID,95.2237,VALID,0,VALID,23.7832,VALID,45,VALID,0.414844,
2008-09-10, 02:12:04,VALID,1003.09,VALID,0,VALID,95.1855,VALID,0,VALID,23.7832,VALID,44,VALID,0.326953,
2008-09-10, 02:13:04,VALID,1003.1,VALID,0,VALID,95.1398,VALID,0,VALID,23.7425,VALID,44,VALID,0.414063,
2008-09-10, 02:14:04,VALID,1003.09,VALID,0,VALID,95.1016,VALID,0,VALID,23.7035,VALID,44,VALID,0.332031,
2008-09-10, 02:15:04,VALID,1003.1,VALID,0,VALID,95.1245,VALID,0,VALID,23.7248,VALID,44,VALID,0.560156,
2008-09-10, 02:16:04,VALID,1003.06,VALID,0,VALID,95.1016,VALID,0,VALID,23.7053,VALID,44,VALID,0.289844,
2008-09-10, 02:17:04,VALID,1003.06,VALID,0,VALID,95.0635,VALID,0,VALID,23.6646,VALID,43,VALID,0.237109,
2008-09-10, 02:18:04,VALID,1003.05,VALID,0,VALID,95.094,VALID,0,VALID,23.6646,VALID,43,VALID,0.24375,
2008-09-10, 02:19:04,VALID,1003.09,VALID,0,VALID,95.0558,VALID,0,VALID,23.6452,VALID,43,VALID,0.144141,
2008-09-10, 02:20:04,VALID,1003.04,VALID,0,VALID,95.0711,VALID,0,VALID,23.6257,VALID,43,VALID,0.149609,
2008-09-10, 02:21:04,VALID,1003.05,VALID,0,VALID,95.1398,VALID,0,VALID,23.6452,VALID,43,VALID,0.275,
2008-09-10, 02:22:04,VALID,1003.04,VALID,0,VALID,95.2084,VALID,0,VALID,23.6841,VALID,43,VALID,0.320703,
2008-09-10, 02:23:04,VALID,1003.05,VALID,0,VALID,95.2237,VALID,0,VALID,23.7248,VALID,38,VALID,0.157031,
2008-09-10, 02:24:04,VALID,1003.01,VALID,0,VALID,95.2161,VALID,0,VALID,23.7443,VALID,38,VALID,0.178125,
2008-09-10, 02:25:04,VALID,1003.01,VALID,0,VALID,95.1627,VALID,0,VALID,23.7248,VALID,38,VALID,0.0078125,
2008-09-10, 02:26:04,VALID,1003.03,VALID,0,VALID,95.1627,VALID,0,VALID,23.7248,VALID,38,VALID,0.184766,
2008-09-10, 02:27:04,VALID,1003.04,VALID,0,VALID,95.155,VALID,0,VALID,23.7443,VALID,38,VALID,0.258984,
2008-09-10, 02:28:04,VALID,1003.04,VALID,0,VALID,95.1703,VALID,0,VALID,23.723,VALID,38,VALID,0.0804688,
2008-09-10, 02:29:04,VALID,1003.03,VALID,0,VALID,95.1855,VALID,0,VALID,23.7619,VALID,38,VALID,0.00585938,
2008-09-10, 02:30:04,VALID,1003.04,VALID,0,VALID,95.155,VALID,0,VALID,23.7637,VALID,38,VALID,0.186328,
2008-09-10, 02:31:04,VALID,1003.03,VALID,0,VALID,95.1169,VALID,0,VALID,23.7425,VALID,38,VALID,0.318359,
2008-09-10, 02:32:04,VALID,1003.04,VALID,0,VALID,95.094,VALID,0,VALID,23.723,VALID,38,VALID,0.155078,
2008-09-10, 02:33:04,VALID,1003.04,VALID,0,VALID,95.0635,VALID,0,VALID,23.7443,VALID,38,VALID,0.218359,
2008-09-10, 02:34:04,VALID,1003.05,VALID,0,VALID,95.0711,VALID,0,VALID,23.7053,VALID,38,VALID,0,
2008-09-10, 02:35:04,VALID,1003.06,VALID,0,VALID,95.1093,VALID,0,VALID,23.7443,VALID,38,VALID,0.294141,
2008-09-10, 02:36:04,VALID,1003.04,VALID,0,VALID,95.1474,VALID,0,VALID,23.7248,VALID,38,VALID,0,
2008-09-10, 02:37:04,VALID,1003.02,VALID,0,VALID,95.1398,VALID,0,VALID,23.7035,VALID,38,VALID,0,
2008-09-10, 02:38:04,VALID,1003.03,VALID,0,VALID,95.155,VALID,0,VALID,23.7035,VALID,38,VALID,0.2,
2008-09-10, 02:39:04,VALID,1003.01,VALID,0,VALID,95.1093,VALID,0,VALID,23.7035,VALID,38,VALID,0.175,
2008-09-10, 02:40:04,VALID,1003,VALID,0,VALID,95.1474,VALID,0,VALID,23.7035,VALID,38,VALID,0.371875,
2008-09-10, 02:41:04,VALID,1002.97,VALID,0,VALID,95.155,VALID,0,VALID,23.7248,VALID,39,VALID,0.411328,
2008-09-10, 02:42:04,VALID,1002.97,VALID,0,VALID,95.1093,VALID,0,VALID,23.7035,VALID,39,VALID,0.364453,
2008-09-10, 02:43:04,VALID,1002.96,VALID,0,VALID,95.1703,VALID,0,VALID,23.6841,VALID,39,VALID,0.333984,
2008-09-10, 02:44:04,VALID,1002.97,VALID,0,VALID,95.1779,VALID,0,VALID,23.7035,VALID,39,VALID,0.300781,
2008-09-10, 02:45:04,VALID,1002.97,VALID,0,VALID,95.2008,VALID,0,VALID,23.723,VALID,39,VALID,0.0933594,
2008-09-10, 02:46:04,VALID,1002.99,VALID,0,VALID,95.2008,VALID,0,VALID,23.7443,VALID,50,VALID,0.354688,
2008-09-10, 02:47:04,VALID,1002.97,VALID,0,VALID,95.2084,VALID,0,VALID,23.7425,VALID,62,VALID,0.0988281,
2008-09-10, 02:48:04,VALID,1002.95,VALID,0,VALID,95.1321,VALID,0,VALID,23.723,VALID,62,VALID,0.000390625,
2008-09-10, 02:49:04,VALID,1002.95,VALID,0,VALID,95.1474,VALID,0,VALID,23.7248,VALID,62,VALID,0.0949219,
2008-09-10, 02:50:04,VALID,1002.95,VALID,0,VALID,95.2313,VALID,0,VALID,23.723,VALID,62,VALID,0,
2008-09-10, 02:51:04,VALID,1002.94,VALID,0,VALID,95.2542,VALID,0,VALID,23.7619,VALID,62,VALID,0.280078,
2008-09-10, 02:52:04,VALID,1002.92,VALID,0,VALID,95.2847,VALID,0,VALID,23.7814,VALID,62,VALID,0.0882813,
2008-09-10, 02:53:04,VALID,1002.93,VALID,0,VALID,95.2161,VALID,0,VALID,23.8009,VALID,62,VALID,0.248828,
2008-09-10, 02:54:04,VALID,1002.93,VALID,0,VALID,95.2466,VALID,0,VALID,23.8203,VALID,62,VALID,0.286719,
2008-09-10, 02:55:04,VALID,1002.9,VALID,0,VALID,95.1627,VALID,0,VALID,23.8009,VALID,62,VALID,0.228516,
2008-09-10, 02:56:04,VALID,1002.9,VALID,0,VALID,95.0711,VALID,0,VALID,23.8009,VALID,62,VALID,0.0597656,
2008-09-10, 02:57:04,VALID,1002.95,VALID,0,VALID,95.0177,VALID,0,VALID,23.8009,VALID,62,VALID,0.170312,
2008-09-10, 02:58:04,VALID,1002.92,VALID,0,VALID,95.0864,VALID,0,VALID,23.8203,VALID,62,VALID,0,
2008-09-10, 02:59:04,VALID,1002.93,VALID,0,VALID,95.0406,VALID,0,VALID,23.8416,VALID,62,VALID,0.00429688,
2008-09-10, 03:00:04,VALID,1002.91,VALID,0,VALID,94.9872,VALID,0,VALID,23.7991,VALID,62,VALID,0.338672,
2008-09-10, 03:01:04,VALID,1002.88,VALID,0,VALID,95.0024,VALID,0,VALID,23.8416,VALID,62,VALID,0.369531,
2008-09-10, 03:02:04,VALID,1002.86,VALID,0,VALID,94.9643,VALID,0,VALID,23.8416,VALID,54,VALID,0.571875,
2008-09-10, 03:03:04,VALID,1002.88,VALID,0,VALID,94.9948,VALID,0,VALID,23.8593,VALID,49,VALID,0.284375,
2008-09-10, 03:04:04,VALID,1002.89,VALID,0,VALID,94.8651,VALID,0,VALID,23.8416,VALID,49,VALID,0.378516,
2008-09-10, 03:05:04,VALID,1002.87,VALID,0,VALID,94.827,VALID,0,VALID,23.8203,VALID,49,VALID,0,
2008-09-10, 03:06:04,VALID,1002.87,VALID,0,VALID,94.8041,VALID,0,VALID,23.8009,VALID,49,VALID,0.278516,
2008-09-10, 03:07:04,VALID,1002.87,VALID,0,VALID,94.7278,VALID,0,VALID,23.7601,VALID,49,VALID,0.028125,
2008-09-10, 03:08:04,VALID,1002.86,VALID,0,VALID,94.8651,VALID,0,VALID,23.7814,VALID,49,VALID,0.220703,
2008-09-10, 03:09:04,VALID,1002.85,VALID,0,VALID,94.8804,VALID,0,VALID,23.8009,VALID,49,VALID,0,
2008-09-10, 03:10:04,VALID,1002.83,VALID,0,VALID,94.9185,VALID,0,VALID,23.8203,VALID,49,VALID,0.00429688,
2008-09-10, 03:11:04,VALID,1002.81,VALID,0,VALID,95.0253,VALID,0,VALID,23.8593,VALID,97,VALID,0.348828,
2008-09-10, 03:12:04,VALID,1002.79,VALID,0,VALID,95.1321,VALID,0,VALID,23.8769,VALID,97,VALID,0.2625,
2008-09-10, 03:13:04,VALID,1002.81,VALID,0,VALID,95.0101,VALID,0,VALID,23.9159,VALID,96,VALID,0.400391,
2008-09-10, 03:14:04,VALID,1002.76,VALID,0,VALID,94.9643,VALID,0,VALID,23.9177,VALID,95,VALID,0.293359,
2008-09-10, 03:15:04,VALID,1002.77,VALID,0,VALID,94.8117,VALID,0,VALID,23.8982,VALID,79,VALID,0.309375,
2008-09-10, 03:16:04,VALID,1002.77,VALID,0,VALID,94.7583,VALID,0.100563,VALID,23.8593,VALID,79,VALID,0.0773437,
2008-09-10, 03:17:04,VALID,1002.77,VALID,0,VALID,94.682,VALID,0,VALID,23.8203,VALID,79,VALID,0.0738281,
2008-09-10, 03:18:04,VALID,1002.76,VALID,0,VALID,94.6897,VALID,0,VALID,23.7796,VALID,79,VALID,0.0777344,
2008-09-10, 03:19:04,VALID,1002.75,VALID,0,VALID,94.6973,VALID,0,VALID,23.7814,VALID,79,VALID,0.151172,
2008-09-10, 03:20:04,VALID,1002.78,VALID,0,VALID,94.8422,VALID,0.100563,VALID,23.7601,VALID,79,VALID,0,
2008-09-10, 03:21:04,VALID,1002.79,VALID,0,VALID,94.8575,VALID,0,VALID,23.8203,VALID,79,VALID,0.153125,
2008-09-10, 03:22:04,VALID,1002.77,VALID,0,VALID,94.8804,VALID,0,VALID,23.8203,VALID,79,VALID,0,
2008-09-10, 03:23:04,VALID,1002.76,VALID,0,VALID,94.8956,VALID,0,VALID,23.7991,VALID,79,VALID,0,
2008-09-10, 03:24:04,VALID,1002.75,VALID,0,VALID,94.9185,VALID,0,VALID,23.8203,VALID,79,VALID,0,
2008-09-10, 03:25:04,VALID,1002.72,VALID,0,VALID,94.888,VALID,0,VALID,23.8203,VALID,79,VALID,0,
2008-09-10, 03:26:04,VALID,1002.74,VALID,0,VALID,94.9262,VALID,0,VALID,23.8203,VALID,79,VALID,0,
2008-09-10, 03:27:04,VALID,1002.74,VALID,0,VALID,95.0177,VALID,0,VALID,23.838,VALID,79,VALID,0,
2008-09-10, 03:28:04,VALID,1002.77,VALID,0,VALID,95.0635,VALID,0,VALID,23.8787,VALID,79,VALID,0,
2008-09-10, 03:29:04,VALID,1002.77,VALID,0,VALID,94.9948,VALID,0,VALID,23.8982,VALID,78,VALID,0,
2008-09-10, 03:30:04,VALID,1002.76,VALID,0,VALID,94.8499,VALID,0,VALID,23.8593,VALID,78,VALID,0,
2008-09-10, 03:31:04,VALID,1002.77,VALID,0,VALID,94.827,VALID,0,VALID,23.8398,VALID,78,VALID,0,
2008-09-10, 03:32:04,VALID,1002.75,VALID,0,VALID,94.7812,VALID,0,VALID,23.8203,VALID,78,VALID,0,
2008-09-10, 03:33:04,VALID,1002.78,VALID,0,VALID,94.766,VALID,0,VALID,23.8203,VALID,78,VALID,0,
2008-09-10, 03:34:04,VALID,1002.78,VALID,0,VALID,94.7888,VALID,0,VALID,23.8009,VALID,78,VALID,0,
2008-09-10, 03:35:04,VALID,1002.78,VALID,0,VALID,94.8422,VALID,0,VALID,23.8009,VALID,77,VALID,0.412109,
2008-09-10, 03:36:04,VALID,1002.77,VALID,0,VALID,94.949,VALID,0,VALID,23.8398,VALID,75,VALID,0.130078,
2008-09-10, 03:37:04,VALID,1002.8,VALID,0,VALID,95.2084,VALID,0.100563,VALID,23.9566,VALID,80,VALID,0.821484,
2008-09-10, 03:38:04,VALID,1002.81,VALID,0,VALID,95.0635,VALID,0,VALID,23.9548,VALID,73,VALID,0.378906,
2008-09-10, 03:39:04,VALID,1002.82,VALID,0,VALID,94.949,VALID,0,VALID,24.0168,VALID,40,VALID,0.45625,
2008-09-10, 03:40:04,VALID,1002.82,VALID,0,VALID,94.8499,VALID,0,VALID,23.9955,VALID,65,VALID,0.474219,
2008-09-10, 03:41:04,VALID,1002.77,VALID,0,VALID,94.8346,VALID,0,VALID,24.015,VALID,21,VALID,0.507813,
2008-09-10, 03:42:04,VALID,1002.8,VALID,0,VALID,94.8041,VALID,0,VALID,24.0539,VALID,25,VALID,0.29375,
2008-09-10, 03:43:04,VALID,1002.81,VALID,0,VALID,94.6973,VALID,0,VALID,24.0752,VALID,25,VALID,0.123828,
2008-09-10, 03:44:04,VALID,1002.83,VALID,0,VALID,94.7125,VALID,0,VALID,24.0539,VALID,26,VALID,0.246484,
2008-09-10, 03:45:04,VALID,1002.82,VALID,0,VALID,94.7507,VALID,0,VALID,24.1123,VALID,69,VALID,0.279687,
2008-09-10, 03:46:04,VALID,1002.79,VALID,0,VALID,94.8575,VALID,0,VALID,24.192,VALID,55,VALID,0.36875,
2008-09-10, 03:47:04,VALID,1002.81,VALID,0,VALID,94.6591,VALID,0,VALID,24.1707,VALID,16,VALID,0.482031,
2008-09-10, 03:48:04,VALID,1002.8,VALID,0,VALID,94.5218,VALID,0,VALID,24.1707,VALID,16,VALID,0.410156,
2008-09-10, 03:49:04,VALID,1002.79,VALID,0,VALID,94.3769,VALID,0,VALID,24.1707,VALID,27,VALID,0.409766,